Location: Ferintosh
(52.7647°N, 112.9692°W)
Time: 00:01:10
(UTC+00:00)

Vanguard 1 Rocket - Pass Details

Date: 26 May 2024
Orbit: 649 x 4221 km, 34.3° (Epoch: 13 June)

Event Time Altitude Azimuth Distance (km) Brightness Sun altitude
Rises 16:08:17 0° 232° (SW) 8,389 12.1 40.5°
Reaches altitude 10° 16:15:13 10° 225° (SW) 7,125 11.8 41.5°
Maximum altitude 16:33:46 35° 171° (S) 4,072 11.6 44.1°
Drops below altitude 10° 16:45:17 10° 112° (ESE) 4,474 11.9 45.6°
Sets 16:48:26 0° 103° (ESE) 5,066 11.9 46.1°
